Lexington Weather

Lexington, Massachusetts, USA

24°F
3/3/2021 3:39am 
  • Lexington Conditions: Overcast
  • Temperature: 24.1°F / -4.4°CWarmer 1.5°F than last hour.
  • Dew Point: 11.1°FIncreased 0.7°Fsince last hour.
  • Relative Humidity: 57%Decreased 2.0% since last hour.
  • Wind: Wind from SW SW 1 mph, 10-min avg: 2 mph, gust: 8 mph
  • Barometer: 29.85 inFalling 0.03  inHg/hr Falling Slowly
  • Visibility: 10 miles
  • Snow Today: 0.0 in
  •   

Regional Weather Roundup
for Boston / Norton, MA

        
000
ASUS41 KBOX 030804
RWRBOX

REGIONAL WEATHER ROUNDUP
NATIONAL WEATHER SERVICE BOSTON/NORTON MA
300 AM EST WED MAR 03 2021

NOTE:  "FAIR" INDICATES FEW OR NO CLOUDS BELOW 12,000 FEET WITH NO 
SIGNIFICANT WEATHER AND/OR OBSTRUCTIONS TO VISIBILITY.

MAZALL-030900-
EASTERN MASSACHUSETTS
  
CITY           SKY/WX    TMP DP  RH WIND       PRES   REMARKS
BOSTON         CLOUDY    24   5  44 SW10      29.91F WCI  14          
BEVERLY        MOCLDY    23   5  46 SW9       29.89F WCI  13          
LAWRENCE       CLOUDY    21   6  52 SW8       29.89F WCI  11          
BEDFORD        CLOUDY    24   7  48 W6        29.89F WCI  17          
BLUE HILL        N/A     21   4  47 SW10      29.87F WCI  10          
NORWOOD        CLOUDY    26   4  38 SW6       29.93F WCI  19          
MARSHFIELD     CLOUDY    27   5  39 SW7G15    29.94F WCI  19          
PLYMOUTH       CLOUDY    25   5  42 SW10      29.94F WCI  15          
TAUNTON        NOT AVBL                                               
NEW BEDFORD    CLOUDY    28   3  34 W8        29.96F WCI  20          
$$

MAZALL-030900-
CAPE COD AND THE ISLANDS
  
CITY           SKY/WX    TMP DP  RH WIND       PRES   REMARKS
FALMOUTH       CLOUDY    27   3  36 W15       29.96F WCI  15          
HYANNIS        NOT AVBL                                               
CHATHAM        NOT AVBL                                               
PROVINCETOWN   MOCLDY    27  11  51 W21G28    29.93F WCI  13          
NANTUCKET        N/A    N/A N/A N/A MISG      29.97F                  
MARTHAS VNYRD  CLOUDY    30  10  43 W10G17    29.97F WCI  21          
$$
 
MAZALL-030900-
CENTRAL AND WESTERN MASSACHUSETTS
  
CITY           SKY/WX    TMP DP  RH WIND       PRES   REMARKS
WORCESTER      NOT AVBL                                               
FITCHBURG      NOT AVBL                                               
ORANGE         MOCLDY    19   9  65 S10       29.90F WCI   7          
SPRINGFIELD    CLOUDY    24   3  40 S8        29.92F WCI  14          
WESTFIELD      NOT AVBL                                               
NORTH ADAMS    NOT AVBL                                               
$$
 
RIZALL-030900-
RHODE ISLAND
  
CITY           SKY/WX    TMP DP  RH WIND       PRES   REMARKS
PROVIDENCE     CLOUDY    24   4  42 SW7       29.97F WCI  16          
NEWPORT        PTCLDY    25   5  42 VRB3      29.97F                  
BLOCK ISLAND   CLEAR     30  16  56 W20       29.99F WCI  17          
SMITHFIELD     CLOUDY    23   5  46 SW5       29.92F WCI  17          
WESTERLY       MOCLDY    27   9  46 VRB5      29.98F WCI  22          
$$
 
CTZALL-030900-
CONNECTICUT
  
CITY           SKY/WX    TMP DP  RH WIND       PRES   REMARKS
BRADLEY INTL   CLOUDY    23   6  48 S6        29.95F WCI  16          
HARTFORD       NOT AVBL                                               
BRIDGEPORT     CLEAR     30  15  53 W8        29.99F WCI  22          
DANBURY        PTCLDY    28   9  44 W7        29.97F WCI  21          
GROTON         CLEAR     28  11  48 W7        29.98F WCI  21          
NEW HAVEN      PTCLDY    31  13  47 VRB6      29.98F WCI  25          
CHESTER        FAIR      27   5  39 W6        29.96F WCI  20          
MERIDEN        MOCLDY    26   7  44 SE3       29.98F                  
WILLIMANTIC    CLOUDY    22   8  55 CALM      29.95F                  
OXFORD         PTCLDY    22   8  55 SW3       29.94F                  
$$

MEZ002-015-021-024-NHZ003-005-008-011-012-014-VTZ005-008-030900-
NORTHERN NEW ENGLAND
  
CITY           SKY/WX    TMP DP  RH WIND       PRES   REMARKS
PORTLAND ME    CLEAR     16  -1  47 S3        29.83F                  
BANGOR ME      MOCLDY    17  -1  45 W10G20    29.71F WCI   5          
CONCORD NH     PTCLDY    18   6  59 S3        29.84F                  
MANCHESTER NH  PTCLDY    23   7  50 SW3       29.85F                  
NASHUA NH      CLOUDY    21   7  54 VRB3      29.87F                  
PORTSMOUTH NH  PTCLDY    19  -4  36 S6        29.85F WCI  11          
JAFFREY NH     MOCLDY    20  14  77 S5        29.82F WCI  13          
KEENE NH       CLOUDY    18  12  77 SW5       29.88F WCI  11          
BURLINGTON VT  LGT SNOW  19  14  81 S7        29.85F WCI  10          
MT. WASHINGTON BLWGSNOW  -2  -2 100 W76G90      N/A  VSB 1/16WCI -39  
$$

NYZ052-076-030900-
EASTERN NEW YORK
  
CITY           SKY/WX    TMP DP  RH WIND       PRES   REMARKS
ALBANY         CLOUDY    20   8  60 S6        29.94F WCI  12          
NEW YORK CITY  PTCLDY    34  12  40 SW10      30.00F WCI  26          
$$
 
ANZALL-030900-
MARINE OBSERVATIONS
  
STATION/POSITION TIME  TEMP    WIND        PRES    VSBY  WAVE
                       AIR SEA DIR/SP/G                  HT/PER
                 (UTC) (F)     (DEG/KT/KT) (MB)    (MI)  (FT/S)
BOSTON BUOY      NOT AVBL
BUZZARDS BAY     NOT AVBL
NANTUCKET SOUND  NOT AVBL
MASS BAY-STELLWA NOT AVBL
ISLE OF SHOALS   NOT AVBL
S OF BLOCK IS    NOT AVBL
$$

......................KEY.........................
  SKY/WX - SKY CONDITION/PRESENT WEATHER
  TMP    - TEMPERATURE IN FAHRENHEIT
  DWPT   - DEWPOINT IN FAHRENHEIT
  RH     - RELATIVE HUMIDITY IN PERCENT
  WIND   - DIRECTION AND SPEED IN MPH
  PRES   - MEAN SEA LEVEL PRESSURE IN INCHES OF HG
  WCI    - WIND CHILL INDEX
  VSB    - VISIBILITY IN MILES
  HX     - HEAT INDEX
  TC     - TEMPERATURE IN CELSIUS
  VRB    - VARIABLE WIND DIRECTION
  N/A    - NOT AVAILABLE
  
      

Other recent Regional Weather Roundups

Wed Mar 3, 2:04am

Wed Mar 3, 1:04am

Wed Mar 3, 12:04am

Tue Mar 2, 11:04pm

Tue Mar 2, 10:05pm

Tue Mar 2, 9:04pm

Tue Mar 2, 8:04pm

Tue Mar 2, 7:04pm

Tue Mar 2, 6:04pm

Tue Mar 2, 5:04pm

Tue Mar 2, 4:05pm

Tue Mar 2, 3:04pm

Tue Mar 2, 2:04pm

Tue Mar 2, 1:04pm

Tue Mar 2, 12:04pm

Tue Mar 2, 11:04am

Tue Mar 2, 10:05am

Tue Mar 2, 9:04am

Tue Mar 2, 8:04am

Tue Mar 2, 7:04am

Tue Mar 2, 6:05am

Tue Mar 2, 5:04am

Tue Mar 2, 4:04am

Tue Mar 2, 3:04am

Tue Mar 2, 2:04am

Tue Mar 2, 1:04am

Tue Mar 2, 12:04am

Mon Mar 1, 11:04pm

Mon Mar 1, 10:04pm

Mon Mar 1, 9:04pm

Mon Mar 1, 8:04pm

Mon Mar 1, 7:04pm

Mon Mar 1, 6:04pm

Mon Mar 1, 5:04pm

Mon Mar 1, 4:05pm

Mon Mar 1, 3:05pm

Mon Mar 1, 2:04pm

Mon Mar 1, 1:04pm

Mon Mar 1, 12:04pm

Mon Mar 1, 11:04am

Mon Mar 1, 10:04am

Mon Mar 1, 9:04am

Mon Mar 1, 8:05am

Mon Mar 1, 7:04am

Mon Mar 1, 6:04am

Mon Mar 1, 5:04am

Mon Mar 1, 4:05am

Mon Mar 1, 3:04am

Mon Mar 1, 2:04am

Mon Mar 1, 1:04am

Mon Mar 1, 12:05am

Sun Feb 28, 11:04pm

Sun Feb 28, 10:04pm

Sun Feb 28, 9:04pm

Sun Feb 28, 8:04pm

Sun Feb 28, 7:04pm

Sun Feb 28, 6:05pm

Sun Feb 28, 5:04pm

Sun Feb 28, 4:05pm

Sun Feb 28, 3:04pm

Sun Feb 28, 2:04pm

Sun Feb 28, 1:04pm

Sun Feb 28, 12:04pm

Sun Feb 28, 11:04am

Sun Feb 28, 10:04am

Sun Feb 28, 9:04am

Sun Feb 28, 8:04am

Sun Feb 28, 7:04am

Sun Feb 28, 6:04am

Sun Feb 28, 5:04am

Sun Feb 28, 4:04am

Sun Feb 28, 3:04am

Sun Feb 28, 2:04am

Sun Feb 28, 1:04am

Sun Feb 28, 12:04am

Sat Feb 27, 11:04pm

Sat Feb 27, 10:04pm

Sat Feb 27, 9:04pm

Sat Feb 27, 8:04pm

Sat Feb 27, 7:04pm

Sat Feb 27, 6:04pm

Sat Feb 27, 5:04pm

Sat Feb 27, 4:04pm

Sat Feb 27, 3:05pm

Sat Feb 27, 2:05pm

Sat Feb 27, 1:04pm

Sat Feb 27, 12:04pm

Sat Feb 27, 11:04am

Sat Feb 27, 10:04am

Sat Feb 27, 9:05am

Sat Feb 27, 8:04am

Sat Feb 27, 7:04am

Sat Feb 27, 6:04am

Sat Feb 27, 5:04am

Sat Feb 27, 4:04am

Sat Feb 27, 3:04am

Sat Feb 27, 2:04am

Sat Feb 27, 1:04am

Sat Feb 27, 12:04am

Fri Feb 26, 11:04pm

Fri Feb 26, 10:04pm

Fri Feb 26, 9:04pm

Fri Feb 26, 8:04pm

Fri Feb 26, 7:04pm

Fri Feb 26, 6:04pm

Fri Feb 26, 5:04pm

Fri Feb 26, 4:04pm

Fri Feb 26, 3:04pm

Fri Feb 26, 2:04pm

Fri Feb 26, 1:04pm

Fri Feb 26, 12:04pm

Fri Feb 26, 11:04am

Fri Feb 26, 10:04am

Fri Feb 26, 9:04am

Fri Feb 26, 8:04am

Fri Feb 26, 7:04am

Fri Feb 26, 6:04am

Fri Feb 26, 5:04am

Fri Feb 26, 4:04am

Fri Feb 26, 3:04am

Fri Feb 26, 2:04am

Fri Feb 26, 1:04am

Fri Feb 26, 12:04am

Thu Feb 25, 11:04pm

Thu Feb 25, 10:04pm

Thu Feb 25, 9:04pm

Thu Feb 25, 8:05pm

Thu Feb 25, 7:05pm

Thu Feb 25, 6:04pm

Thu Feb 25, 5:04pm

Thu Feb 25, 4:05pm

Thu Feb 25, 3:05pm

Thu Feb 25, 2:04pm

Thu Feb 25, 1:04pm

Thu Feb 25, 12:05pm

Thu Feb 25, 11:04am

Thu Feb 25, 10:04am

Thu Feb 25, 9:04am

Thu Feb 25, 8:04am

Thu Feb 25, 7:04am

Thu Feb 25, 6:04am

Thu Feb 25, 5:04am

Thu Feb 25, 4:04am

Thu Feb 25, 3:04am

Thu Feb 25, 2:04am

Thu Feb 25, 1:04am

Thu Feb 25, 12:04am

Wed Feb 24, 11:04pm

Wed Feb 24, 10:05pm

Wed Feb 24, 9:04pm

Wed Feb 24, 8:04pm

Wed Feb 24, 7:04pm

Wed Feb 24, 6:04pm

Wed Feb 24, 5:04pm

Wed Feb 24, 4:04pm

Wed Feb 24, 3:04pm

Wed Feb 24, 2:05pm

Wed Feb 24, 1:05pm

Wed Feb 24, 12:05pm

Wed Feb 24, 11:04am

Wed Feb 24, 10:04am

Wed Feb 24, 9:04am

Wed Feb 24, 8:04am

Wed Feb 24, 7:04am

Wed Feb 24, 6:04am

Wed Feb 24, 5:04am

Wed Feb 24, 4:04am

Meta data:

ID: 0c28d1b8-cfde-4ec4-b80e-f98b22798338
Link: https://api.weather.gov/products/0c28d1b8-cfde-4ec4-b80e-f98b22798338